Location: Cran-Gévrier
(45.9039°N, 6.1012°E)
Time: 21:20:50
(UTC+00:00)

Resurs 01 Rocket - Pass Details

Date: 09 February 2023
Orbit: 632 x 643 km, 97.9° (Epoch: 22 March)

Event Time Altitude Azimuth Distance (km) Brightness Sun altitude
Exits shadow 19:40:26 11° 356° (N) 1,978 4.3 -29.6°
Drops below altitude 10° 19:40:37 10° 355° (N) 2,051 4.4 -29.6°
Sets 19:42:52 0° 351° (N) 2,966 5.3 -30.0°
